Zurück zum Katalog

STARLINK-32743

AktivKommunikationVLEO
NORAD 62480·PAYLOAD·🇺🇸 United States

Gestartet Dec 31, 2024 von Cape Canaveral Space Force Station

Loading…

Nächste Überflüge (nächste 24 Stunden)

TLE

AktuellSource: CelesTrak SupGP

Epoche: Sep 15, 2026, 02:07 UTC

1 62480C 24254U   26258.08868056 -.00011694  00000+0 -42347-3 0  2584
2 62480  43.0042  26.2637 0001772 266.8069 129.7715 15.27591384    13

Verfolge STARLINK-32743 in Echtzeit mit AllMySat

Download on the App Store